Location: Koszewko
(53.2876°N, 14.9061°E)
Time: 00:34:07
(UTC+00:00)

YAOGAN 1 - Pass Details

Date: 03 March 2021
Orbit: 618 x 620 km, 97.9° (Epoch: 11 April)

Event Time Altitude Azimuth Distance (km) Brightness Sun altitude
Rises 17:38:35 0° 168° (SSE) 2,888 5.9 -9.2°
Reaches altitude 10° 17:40:46 10° 171° (S) 1,986 5.0 -9.5°
Maximum altitude 17:45:05 74° 257° (WSW) 651 2.8 -10.1°
Drops below altitude 10° 17:49:27 10° 342° (NNW) 2,002 5.5 -10.8°
Sets 17:51:39 0° 345° (NNW) 2,913 6.3 -11.1°
